| Local Time | Windrichtung | Wind (kt) | Böen (kt) | Max (kt) | Temp (°C) | Druck (hPa) | Feuchte (%) |
|---|---|---|---|---|---|---|---|
| 17:00 | S 186° | 13.0 | 27.2 | 29.9 | 23.4 | 1,004 | 39 |
| 16:50 | S 177° | 14.4 | 26.6 | 29.9 | 23.5 | 1,004 | 38 |
| 16:40 | S 175° | 15.2 | 25.5 | 29.9 | 23.3 | 1,004 | 39 |
| 16:20 | S 182° | 14.6 | 27.6 | 29.9 | 24.4 | 1,004 | 36 |
| 16:10 | S 190° | 14.0 | 29.4 | 29.9 | 24.5 | 1,004 | 34 |
| 16:00 | SSW 194° | 12.8 | 22.9 | 29.9 | 24.5 | 1,004 | 34 |
| 15:50 | SSW 193° | 12.4 | 24.5 | 29.9 | 24.8 | 1,004 | 33 |
| 15:40 | S 186° | 15.7 | 24.9 | 29.9 | 25.2 | 1,004 | 32 |
| 15:30 | S 186° | 11.7 | 23.3 | 29.9 | 25.2 | 1,004 | 32 |
| 15:10 | S 177° | 13.0 | 22.9 | 29.9 | 24.7 | 1,004 | 34 |
| 15:00 | S 176° | 14.4 | 26.0 | 29.9 | 24.8 | 1,004 | 33 |
| 14:50 | S 178° | 14.0 | 27.6 | 29.9 | 24.7 | 1,004 | 32 |
| 14:20 | S 176° | 15.7 | 29.9 | 29.9 | 25.2 | 1,004 | 29 |
| 14:10 | S 175° | 13.2 | 26.8 | 28.8 | 24.4 | 1,005 | 31 |
| 14:00 | S 176° | 15.7 | 27.6 | 28.8 | 24.4 | 1,005 | 31 |
| 13:50 | S 171° | 16.3 | 28.8 | 28.8 | 24.2 | 1,005 | 31 |
| 13:40 | S 177° | 12.2 | 21.4 | 25.3 | 24.8 | 1,005 | 31 |
| 13:20 | S 169° | 13.6 | 23.1 | 25.3 | 24.7 | 1,005 | 30 |
| 13:10 | S 172° | 12.4 | 22.9 | 25.3 | 24.5 | 1,005 | 29 |
| 13:00 | S 172° | 13.4 | 25.3 | 25.3 | 24.7 | 1,005 | 28 |
| 12:50 | S 175° | 12.6 | 22.5 | 22.5 | 24.5 | 1,005 | 29 |
| 12:40 | S 172° | 9.9 | 17.7 | 20.6 | 24.7 | 1,006 | 29 |
| 12:20 | S 171° | 10.7 | 18.9 | 20.6 | 24.5 | 1,006 | 29 |
| 12:10 | SSO 150° | 8.9 | 18.7 | 20.6 | 24.6 | 1,006 | 35 |
| 12:00 | SSO 149° | 8.9 | 16.9 | 20.6 | 23.1 | 1,007 | 38 |
| 11:50 | SSO 153° | 10.1 | 16.5 | 20.6 | 23.0 | 1,007 | 37 |
| 11:40 | SSO 161° | 10.1 | 20.6 | 20.6 | 23.1 | 1,007 | 36 |
| 11:20 | SO 139° | 9.1 | 17.9 | 18.1 | 22.3 | 1,007 | 38 |
| 11:10 | OSO 121° | 9.9 | 18.1 | 18.1 | 22.9 | 1,007 | 37 |
| 11:00 | OSO 113° | 8.4 | 16.7 | 17.1 | 22.1 | 1,007 | 42 |
| 10:50 | OSO 120° | 7.6 | 17.1 | 17.1 | 21.8 | 1,007 | 42 |
| 10:40 | SO 128° | 6.6 | 13.2 | 13.2 | 21.7 | 1,007 | 43 |
| 10:20 | SO 126° | 5.4 | 11.7 | 12.2 | 22.0 | 1,007 | 42 |
| 10:10 | OSO 112° | 5.4 | 11.3 | 12.2 | 21.6 | 1,007 | 42 |
| 10:00 | SO 134° | 3.3 | 9.9 | 12.2 | 22.1 | 1,007 | 40 |
| 09:50 | SO 132° | 1.9 | 5.8 | 12.2 | 21.8 | 1,007 | 39 |
| 09:30 | S 186° | 2.3 | 6.0 | 12.2 | 20.4 | 1,008 | 43 |
| 09:20 | S 179° | 2.1 | 5.4 | 12.2 | 20.7 | 1,008 | 43 |
| 09:10 | S 173° | 3.1 | 6.0 | 12.2 | 20.6 | 1,008 | 43 |
| 09:00 | SSO 158° | 1.7 | 6.0 | 12.2 | 19.3 | 1,008 | 46 |
| 08:40 | WSW 257° | 0.8 | 3.3 | 12.2 | 17.9 | 1,008 | 50 |
| 08:30 | SW 232° | 1.4 | 3.7 | 12.2 | 17.9 | 1,008 | 50 |
| 08:20 | SW 227° | 1.7 | 5.2 | 12.2 | 18.0 | 1,008 | 50 |
| 08:00 | SW 230° | 1.0 | 4.5 | 12.2 | 16.6 | 1,009 | 55 |
| 07:50 | SW 225° | 1.6 | 5.1 | 12.2 | 16.1 | 1,009 | 56 |
| 07:40 | WSW 249° | 2.1 | 5.1 | 12.2 | 15.7 | 1,009 | 57 |
| 07:30 | WSW 247° | 2.1 | 5.6 | 12.2 | 15.6 | 1,009 | 56 |
| 07:20 | SW 218° | 2.7 | 5.2 | 12.2 | 15.5 | 1,009 | 57 |
| 07:00 | WSW 242° | 2.5 | 5.8 | 12.2 | 14.4 | 1,009 | 61 |
| 06:50 | SSW 211° | 4.1 | 6.4 | 12.2 | 14.2 | 1,009 | 61 |
| 06:40 | WSW 253° | 2.3 | 4.9 | 12.2 | 13.6 | 1,009 | 64 |
| 06:20 | W 259° | 2.3 | 5.8 | 12.2 | 13.0 | 1,009 | 65 |
| 06:10 | WSW 242° | 1.6 | 4.1 | 12.2 | 12.5 | 1,009 | 67 |
| 06:00 | SW 235° | 1.6 | 4.7 | 12.2 | 12.3 | 1,009 | 67 |
| 05:50 | WSW 239° | 2.7 | 7.2 | 12.2 | 11.9 | 1,009 | 69 |
| 05:30 | SW 219° | 3.9 | 7.0 | 12.2 | 12.2 | 1,009 | 68 |
| 05:20 | WSW 249° | 2.1 | 5.1 | 12.2 | 12.0 | 1,009 | 68 |
| 05:10 | WSW 246° | 1.7 | 4.9 | 12.2 | 12.0 | 1,008 | 69 |
| 05:00 | SW 215° | 1.7 | 4.5 | 12.2 | 12.8 | 1,009 | 65 |
| 04:50 | SW 220° | 2.7 | 5.1 | 12.2 | 12.9 | 1,008 | 65 |
| 04:30 | NNO 21° | 0.6 | 5.4 | 12.2 | 12.1 | 1,008 | 67 |
| 04:20 | WSW 252° | 1.0 | 3.3 | 12.2 | 12.2 | 1,008 | 67 |
| 04:10 | ONO 73° | 0.8 | 2.1 | 12.2 | 11.9 | 1,008 | 67 |
| 03:50 | N 352° | 1.6 | 3.3 | 12.2 | 12.6 | 1,008 | 65 |
| 03:40 | N 353° | 1.6 | 4.7 | 12.2 | 12.8 | 1,008 | 64 |
| 03:30 | NNW 334° | 2.3 | 6.8 | 12.2 | 12.9 | 1,008 | 64 |
| 03:20 | NW 323° | 6.2 | 12.2 | 12.2 | 13.0 | 1,008 | 64 |
| 03:00 | S 189° | 4.9 | 8.4 | 8.4 | 16.0 | 1,007 | 53 |
| 02:50 | S 183° | 4.1 | 7.2 | 7.4 | 16.0 | 1,007 | 53 |
| 02:40 | S 185° | 3.3 | 5.6 | 7.4 | 15.9 | 1,007 | 54 |
| 02:30 | SSW 193° | 3.3 | 6.0 | 7.4 | 15.9 | 1,007 | 54 |
| 02:10 | S 191° | 3.7 | 7.4 | 7.4 | 15.9 | 1,006 | 54 |
| 02:00 | SSW 192° | 4.1 | 7.4 | 7.4 | 15.9 | 1,006 | 54 |
| 01:50 | S 190° | 4.7 | 7.6 | 33.2 | 15.8 | 1,006 | 55 |
| 01:40 | SSW 192° | 4.5 | 7.6 | 33.2 | 15.7 | 1,006 | 55 |
| 01:30 | S 190° | 4.3 | 7.2 | 33.2 | 15.6 | 1,006 | 55 |
| 01:20 | S 186° | 4.1 | 8.0 | 33.2 | 15.5 | 1,006 | 55 |
| 01:10 | S 182° | 3.7 | 7.0 | 33.2 | 15.5 | 1,006 | 55 |
| 00:50 | SSW 194° | 3.5 | 6.6 | 33.2 | 15.8 | 1,006 | 54 |
| 00:40 | SSW 194° | 3.7 | 6.8 | 33.2 | 15.9 | 1,006 | 54 |
| 00:30 | SSW 193° | 3.5 | 7.4 | 33.2 | 15.9 | 1,006 | 54 |
| 00:20 | SSW 209° | 3.7 | 7.6 | 33.2 | 16.2 | 1,006 | 53 |
| 00:00 | SSW 192° | 5.1 | 9.1 | 33.2 | 16.6 | 1,006 | 52 |
Supported by: GeoSphere Austria